This is the latest recevied weather packets stored in our database for station/object KQ4DLB-13. If no packets are shown the sender has not sent any weather packets the latest 10 day(s).
| Time | Temp. | Humidity | Pressure | Rain* | Wind** | Luminosity | Snow |
|---|---|---|---|---|---|---|---|
| 1777747502 | 17.22° C | 44% | 991.6 hPa | 0 mm | - | 206 W/m² | - |
| 1777747202 | 17.22° C | 43% | 991.6 hPa | 0 mm | - | 141 W/m² | - |
| 1777746902 | 17.78° C | 41% | 991.7 hPa | 0 mm | - | 193 W/m² | - |
| 1777746602 | 18.33° C | 40% | 991.8 hPa | 0 mm | - | 260 W/m² | - |
| 1777746302 | 18.33° C | 39% | 992.3 hPa | 0 mm | - | 105 W/m² | - |
| 1777746002 | 17.78° C | 41% | 992.3 hPa | 0 mm | - | 100 W/m² | - |
| 1777745703 | 17.22° C | 43% | 992.4 hPa | 0 mm | - | 101 W/m² | - |
| 1777745403 | 16.67° C | 45% | 992.2 hPa | 0 mm | - | 702 W/m² | - |
| 1777745102 | 16.67° C | 43% | 992 hPa | 0 mm | - | 255 W/m² | - |
| 1777744802 | 16.67° C | 45% | 992 hPa | 0 mm | - | 218 W/m² | - |
| 1777744502 | 16.67° C | 45% | 992.1 hPa | 0 mm | - | 223 W/m² | - |
| 1777744202 | 17.22° C | 43% | 992.1 hPa | 0 mm | - | 237 W/m² | - |
| 1777743902 | 17.22° C | 43% | 992.1 hPa | 0 mm | - | 262 W/m² | - |
| 1777743602 | 17.78° C | 41% | 992.2 hPa | 0 mm | - | 275 W/m² | - |
| 1777743301 | 17.78° C | 41% | 992.6 hPa | 0 mm | - | 712 W/m² | - |
| 1777743002 | 17.78° C | 42% | 992.6 hPa | 0 mm | - | 726 W/m² | - |
| 1777742702 | 17.22° C | 43% | 992.7 hPa | 0 mm | - | 887 W/m² | - |
| 1777742402 | 17.22° C | 43% | 992.6 hPa | 0 mm | - | 449 W/m² | - |
| 1777742102 | 17.22° C | 42% | 992.7 hPa | 0 mm | - | 575 W/m² | - |
| 1777741802 | 17.78° C | 41% | 992.9 hPa | 0 mm | - | 567 W/m² | - |
| 1777741503 | 17.78° C | 42% | 992.8 hPa | 0 mm | - | 520 W/m² | - |
| 1777741202 | 17.78° C | 43% | 993 hPa | 0 mm | - | 763 W/m² | - |
| 1777740902 | 17.22° C | 42% | 993 hPa | 0 mm | - | 830 W/m² | - |
| 1777740602 | 17.22° C | 42% | 992.8 hPa | 0 mm | - | 362 W/m² | - |
| 1777740302 | 17.22° C | 44% | 992.8 hPa | 0 mm | - | 221 W/m² | - |
* Rain latest hour (hover to see other rain measurements)
** Current wind speed in m/s (hover to see current wind gust speed)